EW5635 Weather Reports


Display with metric or nautical units.
time (UTC)temp
F
wind
direction
speed
MPH
gust
MPH
rain 1hr
in
rain 24hr
in
rain mn
in
humidity
%
barometer
mb
20260510031522 54 0.0 2.0 0.02 0.22 0.22 98 1009.5
20260510030520 54 0 0.0 2.0 0.02 0.21 0.21 98 1009.5
20260510025517 54 0.0 0.0 0.02 0.21 0.21 98 1009.7
20260510024614 54 0.0 0.0 0.02 0.21 0.21 97 1009.8
20260510023610 54 0.0 0.0 0.01 0.20 0.20 97 1009.9
20260510022607 54 0.0 2.0 0.02 0.20 0.20 97 1009.8
20260510021603 55 323 1.0 2.0 0.04 0.20 0.20 97 1009.8
20260510020600 55 349 2.0 4.0 0.05 0.19 0.19 97 1009.7
20260510015618 55 0 0.0 2.0 0.06 0.19 0.19 97 1009.7
20260510014555 55 342 1.0 2.0 0.06 0.19 0.19 96 1010.0
20260510013551 55 0 1.0 2.0 0.07 0.19 0.19 96 1010.1
20260510012549 55 0 1.0 2.0 0.12 0.18 0.18 96 1010.1
20260510011546 55 0.0 2.0 0.15 0.17 0.17 95 1010.1
20260510010543 55 139 1.0 2.0 0.14 0.14 0.14 95 1010.3
20260510005540 55 137 1.0 2.0 0.13 0.13 0.13 95 1010.2
20260510004538 55 138 1.0 2.0 0.13 0.13 0.13 95 1010.2
20260510003535 55 123 1.0 4.0 0.12 0.12 0.12 94 1010.2
20260510002552 55 195 2.0 7.0 0.06 0.06 0.06 93 1010.5
20260510001530 56 0.0 0.0 0.01 0.01 0.01 92 1009.9
20260510000526 56 0.0 0.0 0.00 0.00 0.00 90 1009.7
20260509235544 56 0 0.0 2.0 0.00 0.00 0.00 89 1009.9
20260509234541 57 54 1.0 4.0 0.00 0.00 0.00 86 1009.8
20260509233518 57 109 1.0 4.0 0.00 0.00 0.00 85 1009.9
20260509232517 56 11 0.0 2.0 0.00 0.00 0.00 87 1010.0
20260509231613 56 0.0 0.0 0.00 0.00 0.00 85 1010.0
20260509230610 56 0.0 2.0 0.00 0.00 0.00 85 1009.9
20260509225607 56 0 1.0 2.0 0.00 0.00 0.00 84 1009.9
20260509224605 57 0.0 2.0 0.00 0.00 0.00 82 1009.7
20260509223602 57 248 0.0 2.0 0.00 0.00 0.00 83 1009.8
20260509222559 56 0.0 2.0 0.00 0.00 0.00 83 1009.8
20260509221556 57 0.0 0.0 0.00 0.00 0.00 83 1009.8
20260509220614 57 0.0 2.0 0.00 0.00 0.00 82 1009.7
20260509215611 57 0.0 0.0 0.00 0.00 0.00 83 1009.7
20260509214548 57 0.0 0.0 0.00 0.00 0.00 83 1009.8
20260509213546 57 0.0 0.0 0.00 0.00 0.00 82 1009.8
20260509212543 57 0.0 0.0 0.00 0.00 0.00 81 1009.7
20260509211540 57 0.0 0.0 0.00 0.00 0.00 78 1009.7
20260509210537 58 0 0.0 2.0 0.00 0.00 0.00 77 1009.6
20260509205535 59 293 0.0 2.0 0.00 0.00 0.00 75 1009.8
20260509204532 60 0.0 2.0 0.00 0.00 0.00 70 1009.6
20260509203529 61 146 1.0 4.0 0.00 0.00 0.00 62 1009.9
20260509202526 60 0 0.0 2.0 0.00 0.00 0.00 68 1009.9
20260509201604 61 105 1.0 4.0 0.00 0.00 0.00 63 1009.9
20260509200521 62 122 1.0 4.0 0.00 0.00 0.00 62 1009.9
20260509195540 62 135 1.0 4.0 0.00 0.00 0.00 62 1009.8
20260509194515 60 165 1.0 4.0 0.00 0.00 0.00 64 1009.6
20260509193613 59 0.0 0.0 0.00 0.00 0.00 71 1009.4
20260509192610 60 0.0 0.0 0.00 0.00 0.00 69 1009.2
20260509191607 60 0.0 0.0 0.00 0.00 0.00 71 1009.2
20260509190630 61 0.0 0.0 0.00 0.00 0.00 67 1009.2
20260509185602 62 0.0 0.0 0.00 0.00 0.00 63 1008.9
20260509184600 63 0.0 0.0 0.00 0.00 0.00 64 1008.9
20260509183556 64 145 1.0 2.0 0.00 0.00 0.00 58 1008.9
20260509182554 64 113 1.0 2.0 0.00 0.00 0.00 58 1008.8
20260509181611 65 113 1.0 2.0 0.00 0.00 0.00 58 1008.8
20260509180548 65 135 1.0 2.0 0.00 0.00 0.00 55 1008.8
20260509175547 66 136 1.0 2.0 0.00 0.00 0.00 55 1008.7
20260509174543 66 170 1.0 2.0 0.00 0.00 0.00 53 1008.7
20260509173540 67 141 1.0 2.0 0.00 0.00 0.00 53 1008.7
20260509172558 67 130 1.0 4.0 0.00 0.00 0.00 51 1008.7
20260509171534 68 175 0.0 2.0 0.00 0.00 0.00 53 1008.7
20260509170531 68 165 0.0 2.0 0.00 0.00 0.00 51 1008.9
20260509165529 68 169 1.0 4.0 0.00 0.00 0.00 49 1009.0
20260509164606 69 172 2.0 6.0 0.00 0.00 0.00 49 1009.0
20260509163524 69 153 2.0 6.0 0.00 0.00 0.00 49 1009.2
20260509162541 69 184 2.0 4.0 0.00 0.00 0.00 49 1009.0
20260509161518 70 171 2.0 7.0 0.00 0.00 0.00 47 1009.3
20260509160536 70 193 2.0 8.0 0.00 0.00 0.00 48 1009.2
20260509155734 71 180 1.0 4.0 0.00 0.00 0.00 48 1009.1
20260509154610 72 167 1.0 8.0 0.00 0.00 0.00 47 1009.3
20260509153607 73 160 1.0 2.0 0.00 0.00 0.00 46 1009.2
20260509152604 73 173 2.0 4.0 0.00 0.00 0.00 46 1009.2
20260509151602 74 185 1.0 4.0 0.00 0.00 0.00 45 1009.4
20260509150559 74 164 1.0 2.0 0.00 0.00 0.00 44 1009.4
20260509145556 76 176 1.0 4.0 0.00 0.00 0.00 43 1009.4
20260509144553 76 188 2.0 6.0 0.00 0.00 0.00 42 1009.5
20260509143550 76 203 1.0 2.0 0.00 0.00 0.00 43 1009.5
20260509142548 75 166 2.0 7.0 0.00 0.00 0.00 43 1009.6
20260509141546 76 177 2.0 4.0 0.00 0.00 0.00 43 1009.7
20260509140542 75 163 2.0 4.0 0.00 0.00 0.00 43 1009.8
20260509135540 74 184 3.0 9.0 0.00 0.00 0.00 42 1010.0
20260509134557 75 168 5.0 13.0 0.00 0.00 0.00 41 1010.1
20260509133534 77 192 1.0 4.0 0.00 0.00 0.00 41 1010.2
20260509132531 76 161 3.0 9.0 0.00 0.00 0.00 42 1010.2
20260509131608 76 171 2.0 8.0 0.00 0.00 0.00 43 1010.3
20260509130526 77 189 3.0 9.0 0.00 0.00 0.00 45 1010.4
20260509125523 76 114 1.0 4.0 0.00 0.00 0.00 45 1010.4
20260509124521 77 170 1.0 2.0 0.00 0.00 0.00 46 1010.7
20260509123518 75 198 3.0 8.0 0.00 0.00 0.00 44 1010.8
20260509122515 76 174 3.0 11.0 0.00 0.00 0.00 43 1011.0
20260509121612 75 171 2.0 6.0 0.00 0.00 0.00 44 1010.9
20260509120629 73 180 4.0 6.0 0.00 0.00 0.00 45 1011.0
20260509115607 74 170 2.0 8.0 0.00 0.00 0.00 41 1011.2
20260509114604 73 159 3.0 8.0 0.00 0.00 0.00 45 1011.2
20260509113601 72 169 5.0 9.0 0.00 0.00 0.00 42 1011.5
20260509112558 74 131 2.0 7.0 0.00 0.00 0.00 45 1011.4
20260509111555 74 93 1.0 4.0 0.00 0.00 0.00 48 1011.6
20260509110552 73 123 2.0 7.0 0.00 0.00 0.00 47 1011.7
20260509105550 74 186 1.0 2.0 0.00 0.00 0.00 50 1011.7
20260509104547 73 247 1.0 2.0 0.00 0.00 0.00 50 1011.6
20260509103549 71 203 1.0 2.0 0.00 0.00 0.00 50 1011.7
20260509102541 72 171 1.0 2.0 0.00 0.00 0.00 48 1012.0
20260509101538 72 204 1.0 4.0 0.00 0.00 0.00 50 1012.1
20260509100536 72 225 0.0 2.0 0.00 0.00 0.00 48 1012.1
20260509095534 71 197 1.0 2.0 0.00 0.00 0.00 52 1012.2
20260509094531 70 232 1.0 2.0 0.00 0.00 0.00 53 1012.4
20260509093528 70 248 0.0 2.0 0.00 0.00 0.00 54 1012.6
20260509092525 69 225 0.0 2.0 0.00 0.00 0.00 52 1012.8
20260509091522 69 222 1.0 4.0 0.00 0.00 0.00 56 1012.8
20260509090520 67 315 0.0 2.0 0.00 0.00 0.00 59 1013.0
20260509085519 64 7 1.0 4.0 0.00 0.00 0.00 65 1013.1
20260509084615 64 306 2.0 4.0 0.00 0.00 0.00 67 1013.1
20260509083612 63 15 1.0 2.0 0.00 0.00 0.00 71 1013.2
20260509082610 63 321 1.0 4.0 0.00 0.00 0.00 73 1013.3
20260509081607 61 345 0.0 2.0 0.00 0.00 0.00 75 1013.4
20260509080608 61 273 2.0 4.0 0.00 0.00 0.00 78 1013.3
20260509075623 60 270 1.0 4.0 0.00 0.00 0.00 79 1013.4
20260509074601 59 19 1.0 4.0 0.00 0.00 0.00 82 1013.5
20260509073555 58 285 1.0 4.0 0.00 0.00 0.00 82 1013.6
20260509072612 57 277 1.0 4.0 0.00 0.00 0.00 84 1013.6
20260509071549 55 324 1.0 2.0 0.00 0.00 0.00 89 1013.6
20260509070548 53 338 0.0 2.0 0.00 0.00 0.00 96 1013.6
20260509065545 52 338 0.0 2.0 0.00 0.00 0.00 98 1013.6
20260509064542 51 354 0.0 2.0 0.00 0.00 0.00 98 1013.6
20260509063539 49 0.0 0.0 0.00 0.00 0.00 98 1013.8
20260509062536 49 0.0 0.0 0.00 0.00 0.00 98 1013.8
20260509061534 49 0.0 0.0 0.00 0.00 0.00 98 1013.9
20260509060530 48 0.0 0.0 0.00 0.00 0.00 98 1013.8
20260509055528 48 0.0 0.0 0.00 0.00 0.00 98 1013.7
20260509054527 48 0.0 2.0 0.00 0.00 0.00 98 1013.6
20260509053523 47 0.0 2.0 0.00 0.00 0.00 98 1013.4
20260509052519 47 4 1.0 2.0 0.00 0.00 0.00 98 1013.5
20260509051516 47 23 0.0 2.0 0.00 0.00 0.00 98 1013.6
20260509050654 45 23 1.0 2.0 0.00 0.00 0.00 98 1013.5
20260509045611 47 0 0.0 2.0 0.00 0.00 0.00 98 1013.5
20260509044608 47 0.0 2.0 0.00 0.00 0.00 98 1013.5
20260509043605 46 23 0.0 2.0 0.00 0.00 0.00 97 1013.5
20260509042603 46 11 0.0 2.0 0.00 0.00 0.00 97 1013.3
20260509041600 47 23 1.0 2.0 0.00 0.00 0.00 97 1013.4
20260509040557 47 0.0 0.0 0.00 0.00 0.00 97 1013.4
20260509035554 47 23 0.0 2.0 0.00 0.00 0.00 97 1013.3
20260509034552 47 23 0.0 2.0 0.00 0.00 0.00 97 1013.2
20260509033549 47 23 1.0 2.0 0.00 0.00 0.00 97 1013.4
20260509032606 47 23 1.0 2.0 0.00 0.00 0.00 96 1013.4